Location: Newark
(12.4436°N, 0.6167°W)
Time: 11:55:19
(UTC+00:00)

Vanguard 2 - Pass Details

Date: 15 December 2019
Orbit: 553 x 2938 km, 32.9° (Epoch: 23 January)

Event Time Altitude Azimuth Distance (km) Brightness Sun altitude
Rises 00:45:23 0° 277° (W) 5,142 - -74.3°
Reaches altitude 10° 00:48:46 10° 285° (WNW) 4,456 - -73.7°
Maximum altitude 01:00:50 38° 350° (N) 3,509 - -71.4°
Exits shadow 01:14:11 15° 48° (NE) 5,301 11.7 -68.8°
Drops below altitude 10° 01:16:41 10° 53° (NE) 5,766 12.0 -68.3°
Sets 01:21:53 0° 61° (ENE) 6,757 12.5 -67.2°
